Regional Weather Roundup
Issued by NWS

Home | Current Version | Previous Version | Text Only | Print | Product List | Glossary Off
Versions: 1 2 3 4 5 6 7 8 9 10 11 12 13 14 15 16 17 18 19 20 21 22 23 24 25 26 27 28 29 30 31 32 33 34 35 36 37 38 39 40 41 42 43 44 45 46 47 48 49 50

000
ASUS43 KTOP 212359
RWRKS

WEATHER ROUNDUP FOR KANSAS
NATIONAL WEATHER SERVICE GOODLAND KS
600 PM CST SAT JAN 21 2017

NOTE:  "FAIR" INDICATES FEW OR NO CLOUDS BELOW 12,000 FEET WITH NO
SIGNIFICANT WEATHER AND/OR OBSTRUCTIONS TO VISIBILITY.

KSZ001>006-013>018-027>032-041>047-220100-
NORTHWEST KANSAS

CITY           SKY/WX    TMP DP  RH WIND       PRES   REMARKS
GOODLAND       CLOUDY    36  30  79 NE9       29.43R
6HR MIN TEMP:  36; 6HR MAX TEMP:  48;

HAYS           PTCLDY    44  37  76 E9        29.43R
HILL CITY      CLEAR     44  36  73 E9        29.45R
6HR MIN TEMP:  44; 6HR MAX TEMP:  55;

RUSSELL        CLOUDY    45  36  70 E8        29.42R
6HR MIN TEMP:  45; 6HR MAX TEMP:  55;

$$

KSZ061>065-074>080-084>089-220100-
SOUTHWEST KANSAS

CITY           SKY/WX    TMP DP  RH WIND       PRES   REMARKS
DODGE CITY     CLOUDY    47  37  68 E9        29.37R
6HR MIN TEMP:  47; 6HR MAX TEMP:  55;

ELKHART          N/A    N/A N/A N/A MISG        N/A
GARDEN CITY    CLOUDY    47  38  71 NE10      29.37R
6HR MIN TEMP:  45; 6HR MAX TEMP:  53;

GREAT BEND     CLOUDY    47  38  71 E8        29.42R
LIBERAL        CLOUDY    48  36  61 E10G16    29.34R
$$

KSZ066>073-081>083-090>101-220100-
SOUTHEAST KANSAS

CITY           SKY/WX    TMP DP  RH WIND       PRES   REMARKS
CHANUTE        CLOUDY    50  41  71 CALM      29.47S
6HR MIN TEMP:  50; 6HR MAX TEMP:  55; 6HR PCP: TRACE;

COFFEYVILLE    RAIN      52  43  71 NE9       29.45S
6HR MIN TEMP:  49; 6HR MAX TEMP:  55; 6HR PCP: TRACE;

HUTCHINSON     CLOUDY    47  40  76 E10       29.42S
6HR MIN TEMP:  47; 6HR MAX TEMP:  54; 6HR PCP: TRACE;

MEDICINE LODGE   N/A     45  38  76 E7        29.38R
NEWTON         LGT RAIN  46  43  89 E10       29.44S
PARSONS        CLOUDY    52  40  63 E3        29.46F
6HR MIN TEMP:  51; 6HR MAX TEMP:  54;

WICHITA INTL   CLOUDY    47  44  90 NE7       29.42R
6HR MIN TEMP:  47; 6HR MAX TEMP:  50; 6HR PCP:  0.05;

WICHITA JABRA  CLOUDY    46  44  93 E8        29.43S
6HR MIN TEMP:  46; 6HR MAX TEMP:  50;

WICHITA MCCONL LGT RAIN  46  43  87 NE8       29.42R
WINFIELD       CLOUDY    49  39  68 NE6       29.41F
6HR MIN TEMP:  48; 6HR MAX TEMP:  54;

$$

KSZ007>012-019>026-033>040-048>060-102>105-220100-
NORTHEAST KANSAS

CITY           SKY/WX    TMP DP  RH WIND       PRES   REMARKS
CONCORDIA      CLOUDY    47  38  71 CALM      29.47R
6HR MIN TEMP:  47; 6HR MAX TEMP:  53;

EMPORIA        LGT RAIN  47  44  90 SE6       29.49R
6HR MIN TEMP:  47; 6HR MAX TEMP:  56; 6HR PCP: TRACE;

LAWRENCE       LGT RAIN  50  44  80 E3        29.50R
6HR MIN TEMP:  47; 6HR MAX TEMP:  58; 6HR PCP: TRACE;

MANHATTAN      MOCLDY    51  39  63 SE5       29.48R
6HR MIN TEMP:  48; 6HR MAX TEMP:  58;

OLATHE IND     LGT RAIN  50  43  77 E7        29.51R
6HR MIN TEMP:  48; 6HR MAX TEMP:  56; 6HR PCP:  0.01;

OLATHE EXE     LGT RAIN  50  42  74 SE3       29.50R
6HR MIN TEMP:  46; 6HR MAX TEMP:  55; 6HR PCP:  0.01;

SALINA         MOCLDY    50  39  66 NE8       29.46R
TOPEKA BILLARD LGT RAIN  52  41  66 CALM      29.50R
6HR MIN TEMP:  49; 6HR MAX TEMP:  57; 6HR PCP: TRACE;

TOPEKA FORBES  LGT RAIN  50  43  77 S3        29.50R
6HR MIN TEMP:  50; 6HR MAX TEMP:  57; 6HR PCP:  0.01;

$$



USA.gov is the U.S. government's official web portal to all federal, state and local government web resources and services.